Location: Calimesa Mobile Home Ranch
(33.9736°N, 117.0370°W)
Time: 12:02:06
(UTC+00:00)

Cosmos 1727 Rocket - Pass Details

Date: 29 May 2024
Orbit: 961 x 996 km, 82.9° (Epoch: 18 June)

Event Time Altitude Azimuth Distance (km) Brightness Sun altitude
Rises 12:04:00 0° 353° (N) 3,679 7.4 -7.1°
Reaches altitude 10° 12:06:31 10° 352° (N) 2,733 6.7 -6.7°
Maximum altitude 12:12:47 84° 266° (W) 994 4.1 -5.5°
Drops below altitude 10° 12:19:05 10° 178° (S) 2,741 6.1 -4.4°
Sets 12:21:36 0° 178° (S) 3,690 6.7 -4.0°
